EXPRESS-A4

Last updated on Wed May 20 2020 05:09:50 GMT+0000 (Coordinated Universal Time)

1 27441U 02029A 20140.65286396 -.00000291 00000-0 00000-0 0 9996 2 27441 7.8011 50.3636 0003369 2.0628 193.5313 0.99194532 65748
UTC large
Height (km)
Speed (km/s)
/
Latitude / Longitude
Inclination (degrees)
Orbital Period (minutes)
Azimuth
Elevation
Range (km)
Doppler Factor

Next 0 passes for location: London (51.5072 / 0.1276)

Sorry there are no passes over London.
EXPRESS-A4